Location: Hradec Kralove
(50.2170°N, 15.8330°E)
Time: 00:42:35
(UTC+02:00)

Envisat - Visible Passes

Search period start: 05 October 2023 00:00
Search period end: 15 October 2023 00:00
Orbit: 763 x 764 km, 98.2° (Epoch: 04 October)

Date Brightness Start Highest point End Pass type
(mag) Time Alt. Az. Time Alt. Az. Time Alt. Az.
05 Oct 5.2 03:33:05 10° NE 03:36:51 21° E 03:39:51 13° SE visible
05 Oct 3.0 05:11:16 10° N 05:16:18 64° WNW 05:20:01 18° SSW visible
06 Oct 3.3 04:34:01 10° NNE 04:39:06 65° ESE 04:42:14 23° S visible
06 Oct 4.2 06:13:47 10° N 06:17:39 22° WNW 06:21:30 10° WSW visible
07 Oct 4.5 03:57:08 10° NNE 04:01:41 32° E 04:04:27 19° SE visible
07 Oct 3.4 05:36:01 10° N 05:40:46 41° WNW 05:44:37 15° SW visible
08 Oct 5.5 03:20:55 10° NE 03:24:04 16° E 03:26:41 12° ESE visible
08 Oct 2.9 04:58:35 10° NNE 05:03:42 80° WNW 05:06:50 24° SSW visible
09 Oct 3.7 04:21:27 10° NNE 04:26:25 51° E 04:29:03 26° SSE visible
09 Oct 4.0 06:00:55 10° N 06:05:09 27° WNW 06:09:12 11° WSW visible
10 Oct 4.9 03:44:43 10° NE 03:48:57 26° E 03:51:16 19° SE visible
10 Oct 3.2 05:23:17 10° N 05:28:12 51° WNW 05:31:25 21° SW visible
11 Oct 5.7 03:09:01 10° ENE 03:11:15 13° E 03:13:28 10° ESE visible
11 Oct 3.0 04:45:57 10° NNE 04:51:03 82° ESE 04:53:38 30° S visible
11 Oct 4.4 06:26:02 10° NNW 06:29:27 18° NW 06:32:51 10° W visible
12 Oct 4.1 04:08:55 10° NNE 04:13:43 41° E 04:15:50 27° SSE visible
12 Oct 3.7 05:48:07 10° N 05:52:37 33° WNW 05:56:00 16° WSW visible
13 Oct 5.2 03:32:24 10° NE 03:36:10 21° E 03:38:03 17° ESE visible
13 Oct 2.9 05:10:34 10° N 05:15:36 64° WNW 05:18:12 28° SW visible
14 Oct 3.3 04:33:19 10° NNE 04:38:24 65° ESE 04:40:24 36° S visible
14 Oct 4.2 06:13:05 10° N 06:16:57 22° WNW 06:20:33 11° WSW visible
